Regional Weather Roundup
Issued by NWS

Home | Current Version | Previous Version | Graphics & Text | Print | Product List | Glossary On
Versions: 1 2 3 4 5 6 7 8 9 10 11 12 13 14 15 16 17 18 19 20 21 22 23 24 25 26 27 28 29 30 31 32 33 34 35 36 37 38 39 40 41 42 43 44 45 46 47 48 49 50
000
ASUS43 KMPX 221210
RWRMN
WEATHER ROUNDUP FOR MINNESOTA
NATIONAL WEATHER SERVICE TWIN CITIES/CHANHASSEN MN
700 AM CDT SAT JUL 22 2017


NOTE: "FAIR" INDICATES FEW OR NO CLOUDS BELOW 12,000 FEET WITH NO
SIGNIFICANT WEATHER AND/OR OBSTRUCTIONS TO VISIBILITY. N/A MEANS
CURRENT SKY AND/OR WEATHER CONDITIONS ARE NOT AVAILABLE.

MNZ060>063-068>070-221300-
   Twin Cities Metro

CITY           SKY/WX    TMP DP  RH WIND       PRES   REMARKS
TWIN CITIES    CLOUDY    71  66  84 N6        29.82R
6HR MIN TEMP:  71; 6HR MAX TEMP:  73;

ST PAUL        CLOUDY    70  68  93 N6        29.81R
CRYSTAL        CLOUDY    68  63  84 CALM      29.81R
BLAINE         PTSUNNY   68  66  94 CALM      29.83R
LAKEVILLE      CLOUDY    68  68 100 N3        29.81R
EDEN PRAIRIE   CLOUDY    71  67  87 N3        29.81R
6HR MIN TEMP:  70; 6HR MAX TEMP:  74;

SOUTH ST PAUL  CLOUDY    70  68  93 N6        29.81R
LAKE ELMO      FAIR      68  66  94 CALM      29.83S
$$
MNZ001>005-007-008-013>017-022>024-027-028-221300-
   Northwest Minnesota

CITY           SKY/WX    TMP DP  RH WIND       PRES   REMARKS
BEMIDJI        PTSUNNY   62  61  94 CALM      29.81R
HALLOCK        CLEAR     63  61  94 SW5       29.75R
ROSEAU         SUNNY     63  57  82 SW3       29.78R
WARROAD        PTSUNNY   61  57  88 SE6       29.77R FOG
THIEF RVR FALL FOG       66  65  96 SW10      29.79S VSB 1/4
CROOKSTON      FOG       66  66 100 SW10      29.80R VSB 1/2
FOSSTON        PTCLDY    63  63 100 W3        29.81R
DETROIT LAKES  MOCLDY    64  63  94 SW7       29.84S
MOORHEAD       CLEAR     64  63  94 SW5       29.83S
PARK RAPIDS    CLOUDY    67  64  90 S8        29.82F
MAHNOMEN       FAIR      64  62  93 SW8       29.81R
$$
MNZ006-009>011-018-025>026-221300-
   North Central Minnesota

CITY           SKY/WX    TMP DP  RH WIND       PRES   REMARKS
BAUDETTE       FOG       61  61 100 SE5       29.79R VSB 1/4
FLAG ISLAND    PTSUNNY   66  61  82 SE9       29.78R
INTL FALLS     CLOUDY    58  57  97 CALM      29.81F
6HR MIN TEMP:  52; 6HR MAX TEMP:  59;

BIG FORK       CLOUDY    63  63 100 SE3       29.80F
LONGVILLE      LGT RAIN  64  64 100 S9        29.82F
GRAND RAPIDS   CLOUDY    64  63  94 S8        29.84F FOG
CRANE LAKE     PTSUNNY   52  52 100 CALM      29.84S FOG
ORR            CLOUDY    55  54  94 CALM      29.80F
COOK           CLOUDY    55  55 100 CALM      29.83S
WALKER         PTSUNNY   64  62  94 N3        29.82R
$$
MNZ012-019>021-037-221300-
   Northeast Minnesota

CITY           SKY/WX    TMP DP  RH WIND       PRES   REMARKS
DULUTH         CLOUDY    60  57  89 CALM      29.85S
6HR MIN TEMP:  57; 6HR MAX TEMP:  61;

ELY            MOSUNNY   54  54 100 CALM      29.83S
HIBBING        FOG       60  60 100 E3        29.84F VSB 3/4
EVELETH        CLOUDY    59  56  89 CALM      29.86S
DULUTH HARBOR  PTSUNNY   63  57  82 CALM      29.85R
TWO HARBORS    MOSUNNY   61  55  82 CALM      29.83R
SILVER BAY     CLOUDY    61  55  82 CALM      29.82S
GRAND MARAIS     N/A     58  54  86 NE9       29.82R
G MARAIS ARPRT SUNNY     57  50  77 E5        29.86R
$$
MNZ029>031-032-039>041-046>048-054>057-064-221300-
   West Central Minnesota

CITY           SKY/WX    TMP DP  RH WIND       PRES   REMARKS
FERGUS FALLS   CLOUDY    64  64 100 SE6       29.83F
WHEATON        PTCLDY    66  63  88 E6        29.88R
MORRIS         PTCLDY    68  64  88 E12       29.85F
ALEXANDRIA     LGT RAIN  66  66 100 N7        29.88F
ELBOW LAKE     FAIR      65  64  96 NE9       29.85F
WADENA         RAIN      64  64 100 S7        29.84F
GLENWOOD       LGT RAIN  66  64  94 NE12      29.88F
APPLETON       MOCLDY    72  66  83 NE10G17   29.86S
BENSON         CLOUDY    70  66  88 NE10G18   29.89R
ORTONVILLE     CLOUDY    70  66  88 NE8       29.85F
MADISON        PTCLDY    72  72 100 N5        29.87R
WILLMAR        FAIR      68  68 100 NW8       29.89R
$$
MNZ033>034-036-042>043-049>051-058-059-221300-
   Central Minnesota

CITY           SKY/WX    TMP DP  RH WIND       PRES   REMARKS
ST CLOUD       PTSUNNY   66  66 100 N8        29.90R
6HR MIN TEMP:  65; 6HR MAX TEMP:  68;

SAUK CENTRE    LGT RAIN  68  65  89 NW10G18   29.92R
PAYNESVILLE    PTCLDY    67  67  98 NW10      29.91R
AITKIN         LGT RAIN  63  61  94 SW5       29.87R
PINE RIVER     RAIN      64  64 100 S10       29.85F
BRAINERD       LGT RAIN  67  65  93 W9        29.91R FOG
STAPLES        LGT RAIN  64  63  94 SE7       29.85F
LONG PRAIRIE   CLOUDY    66  64  94 NW9       29.91R
LITTLE FALLS   LGT RAIN  66  63  88 N3        29.91R
LITCHFIELD     CLEAR     72  70  94 W7        29.85R
BUFFALO        CLOUDY    69  65  87 CALM      29.84S
MAPLE LAKE     CLOUDY    68  67  96 N5        29.85R
HUTCHINSON     MOSUNNY   68  68  99 W3        29.84R
$$
MNZ037-044-045-052-053-221300-
   East Central Minnesota

CITY           SKY/WX    TMP DP  RH WIND       PRES   REMARKS
PRINCETON      PTSUNNY   66  64  94 N12       29.89R
MORA           CLOUDY    63  63 100 N3        29.90R
CAMBRIDGE      CLOUDY    66  64  94 N3        29.85R
RUSH CITY      CLOUDY    63  62  96 NW3       29.87R
MOOSE LAKE     FOG       61  59  94 CALM      29.85R VSB 1/4
HINCKLEY       PTSUNNY   63  63 100 W3        29.89R
CLOQUET        CLOUDY    59  57  94 CALM      29.87R
MCGREGOR       CLOUDY    63  63 100 CALM      29.86S VSB 3/4
$$
MNZ071>073-080-081-089-090-097-098-221300-
   Southwest Minnesota

CITY           SKY/WX    TMP DP  RH WIND       PRES   REMARKS
MONTEVIDEO     MOCLDY    70  68  94 NE6       29.88R
GRANITE FALLS  CLEAR     70  68  95 NW8       29.88R
CANBY          CLEAR     69  68  95 CALM      29.89R
MARSHALL       CLEAR     69  67  93 N6        29.87R
REDWOOD FALLS  CLEAR     69  67  93 N3        29.85R
OLIVIA         CLEAR     70  68  94 N6        29.86R
PIPESTONE      CLEAR     70  66  88 CALM      29.87R
WINDOM         CLOUDY    72  70  94 SE3       29.84R FOG
JACKSON        CLOUDY    70  70 100 CALM      29.83R FOG
SLAYTON        PTCLDY    68  63  83 W5        29.86R HAZE
$$
MNZ065>067-074>077-082>085-091>093-221300-
   South Central Minnesota

CITY           SKY/WX    TMP DP  RH WIND       PRES   REMARKS
MANKATO        MOSUNNY   70  68  94 W6        29.83R
NEW ULM        CLOUDY    70  66  88 W5        29.83R
ST JAMES       FOG       70  68  94 CALM      29.83R VSB 1/4
FAIRMONT       CLOUDY    70  70 100 SW5       29.82R FOG
GLENCOE        PTSUNNY   69  69 100 CALM      29.82R
FARIBAULT      PTSUNNY   70  68  94 CALM      29.82R
OWATONNA       CLOUDY    70  68  94 CALM      29.81R FOG
WASECA         CLOUDY    70  68  94 CALM      29.82R FOG
ALBERT LEA     FOG       70  68  94 CALM      29.79R VSB 3/4
$$
MNZ078>079-086>088-094>096-221300-
   Southeast Minnesota

CITY           SKY/WX    TMP DP  RH WIND       PRES   REMARKS
ROCHESTER      FOG       68  68 100 NE6       29.79F VSB 1/4
6HR MIN TEMP:  68; 6HR MAX TEMP:  68;

RED WING       CLOUDY    70  66  88 E3        29.79F
STANTON        CLOUDY    69  67  93 NE3       29.79S
DODGE CENTER   DRZL/FOG  68  66  94 NE6       29.78F VSB<1/4
WINONA         CLOUDY    70  68  94 NW6       29.80R
AUSTIN         FOG       70  66  88 CALM      29.77F VSB 3/4
PRESTON        FOG       68  67  96 SW5       29.81R VSB 1/4
$$
ABBREVIATIONS USED IN REMARKS
   TC - TEMPERATURES IN CELSIUS
  WCI - WIND CHILL INDEX
   HX - HEAT INDEX
  VSB - VISIBILITY
$$




USA.gov is the U.S. government's official web portal to all federal, state and local government web resources and services.